Location: Unspecified
(0.0000°N, 0.0000°E)
Time: 18:59:47
(UTC+00:00)

Vanguard 2 - Pass Details

Date: 24 November 2019
Orbit: 553 x 2938 km, 32.9° (Epoch: 08 December)

Event Time Altitude Azimuth Distance (km) Brightness Sun altitude
Rises 05:16:40 0° 258° (WSW) 6,787 11.8 -7.0°
Reaches altitude 10° 05:21:59 10° 266° (W) 5,745 11.4 -5.7°
Maximum altitude 05:36:45 34° 324° (NW) 3,594 10.5 -2.3°
Drops below altitude 10° 05:48:01 10° 25° (NNE) 4,352 11.5 0.3°
Sets 05:51:28 0° 35° (NE) 5,020 11.9 1.2°
